GFSNW_sfc_30mbdewp_174.txt.gz
Dewpoint
48 50 50 49 50 49 45 41 32 42 42 32 32 29 27 28 28 30 29 29 27 25 23 22 22 21 21 29 29 24 21 21 26 29 33 35 31 26 24 21 10 13 10 11
49 50 50 50 50 49 41 38 37 42 40 28 29 25 27 29 26 28 27 27 28 25 23 20 23 24 26 29 27 23 22 17 16 23 25 27 28 31 24 18 13 8 3 8
49 51 51 50 50 49 42 34 30 37 37 33 27 24 24 23 29 26 27 26 24 23 20 22 22 21 25 28 26 29 26 17 12 9 11 20 23 19 21 19 9 9 7 10
48 51 51 51 50 49 43 34 29 34 30 31 26 25 23 19 19 27 26 24 24 21 19 19 20 21 22 23 24 25 22 12 16 16 15 17 17 18 16 14 12 7 7 13
48 51 51 51 50 49 43 35 28 31 25 25 23 23 21 20 21 22 21 24 24 24 20 20 16 23 23 21 24 20 19 13 14 7 11 12 14 17 15 15 11 12 13 12
48 51 51 52 49 47 39 36 36 30 27 24 23 23 23 22 24 25 26 25 25 24 23 27 27 28 28 26 26 22 18 14 12 1 16 14 4 10 15 15 16 12 8 12
49 51 52 52 48 49 40 36 36 31 22 25 22 24 25 24 25 23 28 28 26 27 30 28 27 26 27 26 26 26 18 18 19 11 14 -1 13 13 15 14 16 15 13 16
50 52 53 52 47 48 42 40 37 32 23 26 24 25 26 27 27 27 28 29 29 30 27 21 19 20 19 20 25 26 23 20 14 13 9 12 13 11 13 9 11 16 16 20
51 52 53 52 47 47 40 40 41 34 24 24 25 25 27 24 25 27 29 32 32 29 24 20 10 5 14 12 16 26 23 21 16 13 1 -3 13 16 16 16 10 17 20 21
51 53 53 51 47 46 42 39 42 37 24 30 29 26 26 28 27 25 29 29 29 28 22 17 14 13 18 9 11 16 18 18 11 16 6 7 14 17 19 5 10 17 20 21
52 53 53 51 47 46 43 41 42 37 29 33 34 31 29 29 28 23 28 26 27 25 18 18 19 19 19 17 15 18 14 11 10 17 9 4 18 18 11 12 19 20 19 22
53 53 53 50 47 46 44 41 42 41 32 33 37 35 34 33 32 30 31 24 28 26 23 24 24 20 20 16 5 20 14 17 15 15 11 17 20 17 19 21 19 22 21 23
53 53 53 51 47 46 44 42 41 39 35 36 36 34 35 35 34 35 29 31 31 31 31 27 25 20 22 14 15 16 18 22 20 17 15 20 22 23 21 23 22 23 24 25
52 53 53 51 48 47 44 41 42 39 35 32 32 35 33 34 34 34 35 34 34 33 32 27 25 21 24 19 19 18 18 22 19 19 18 19 19 22 24 23 25 25 26 27
51 52 53 50 49 46 45 44 43 41 37 34 34 34 34 34 34 34 34 34 32 31 29 28 24 28 27 28 27 25 23 19 16 16 18 17 18 21 24 23 23 25 27 28
48 52 51 50 48 46 44 41 45 44 41 36 34 33 33 34 34 34 34 34 34 32 29 28 30 33 28 23 22 23 26 24 22 20 21 21 21 23 25 25 25 26 28 28
42 44 49 49 48 47 43 40 43 44 43 37 35 34 32 33 33 33 33 34 33 32 31 30 31 31 31 28 23 24 27 27 28 28 26 25 26 25 27 27 28 31 29 28
41 41 45 50 48 46 43 45 45 44 41 39 36 32 31 33 31 30 32 32 32 32 31 31 30 31 30 27 28 29 29 29 28 29 29 28 28 28 29 29 28 27 27 25
41 44 46 44 42 41 41 46 45 45 40 36 33 31 28 32 30 31 32 31 29 30 29 29 30 28 26 28 25 25 27 28 28 29 29 29 29 28 28 28 27 27 26 24
42 39 33 34 40 45 45 41 39 39 39 37 32 32 29 30 30 29 30 30 28 26 28 30 29 28 29 27 25 24 27 27 27 27 26 28 28 28 28 28 28 27 27 26
36 34 33 40 44 39 35 32 31 31 30 33 34 34 29 31 28 28 31 29 29 26 26 28 26 24 26 26 24 24 26 26 29 29 29 29 29 29 29 29 28 28 27 26
36 37 39 38 33 32 29 28 30 30 28 32 31 32 31 30 32 31 31 29 28 25 27 26 21 24 25 25 24 25 25 25 27 27 27 27 28 28 28 28 25 25 25 21
32 32 32 29 30 25 23 22 26 27 30 32 32 30 32 32 34 31 30 27 25 28 24 22 23 24 26 25 24 24 25 23 24 24 25 27 27 24 23 22 20 20 18 18
25 23 22 22 22 24 24 25 26 29 31 31 32 30 30 31 30 30 26 26 25 21 19 20 25 26 27 25 24 24 24 23 22 21 21 25 24 21 20 19 19 18 17 17
23 20 17 20 24 26 27 27 28 30 31 31 31 30 31 29 28 29 25 22 20 21 21 26 27 28 27 25 24 24 24 23 22 21 20 19 20 19 18 18 17 17 17 16
20 21 22 24 24 24 22 22 22 29 30 31 31 29 27 26 26 24 23 21 20 22 23 26 27 26 26 25 24 23 24 22 20 21 20 19 18 17 17 17 17 16 15 14
15 16 22 24 24 24 24 25 23 28 20 17 21 21 21 22 23 22 23 21 21 21 21 25 26 26 26 26 24 22 22 22 20 20 20 18 18 16 16 15 15 14 14 14

GFSNW_sfc_30mbdewp_180.txt.gz
Dewpoint
53 51 50 48 48 50 46 43 33 44 43 34 34 31 32 28 27 31 30 29 26 25 25 22 22 21 22 27 28 26 27 24 23 28 32 34 34 32 29 22 20 24 26 23
49 52 50 48 49 50 43 39 39 43 41 29 29 31 29 26 28 28 29 28 29 28 24 20 22 23 26 29 29 26 23 20 18 24 27 29 31 32 29 21 17 16 19 12
48 50 50 49 49 50 45 36 34 39 40 36 31 29 27 25 30 26 29 26 27 25 23 23 22 22 25 26 28 29 25 21 18 14 13 27 29 28 29 28 22 19 16 11
46 49 51 50 49 50 44 37 30 35 32 33 32 29 27 23 21 28 28 24 25 23 19 19 20 21 21 24 25 29 25 20 18 17 16 17 20 26 28 28 27 18 14 15
44 47 48 50 50 50 44 36 33 31 31 29 32 30 27 24 22 21 22 24 23 24 22 17 15 20 21 20 25 20 21 19 17 14 15 14 13 16 18 22 22 24 24 22
42 44 46 49 50 50 43 41 39 31 28 25 27 27 26 22 22 23 22 24 24 24 24 25 25 25 27 27 25 23 20 18 15 10 15 15 10 10 16 17 15 14 11 14
42 43 45 47 50 50 43 40 37 32 28 25 23 23 25 23 23 19 26 27 24 25 30 29 28 27 27 27 27 27 22 18 19 17 15 8 13 13 17 16 16 14 13 17
42 42 43 46 47 51 46 42 37 34 27 26 25 23 24 26 27 26 26 29 28 30 26 22 19 19 20 21 25 25 26 20 19 17 11 10 14 10 15 13 13 15 15 19
43 44 43 42 46 48 49 45 40 37 32 26 24 24 25 24 25 26 28 31 31 28 24 20 13 6 13 12 16 25 23 22 19 13 6 5 13 15 15 16 7 17 18 21
41 42 43 44 45 47 49 45 43 39 33 30 27 25 25 27 26 24 29 30 29 28 23 17 14 13 19 12 10 17 19 19 15 12 10 9 13 16 19 7 11 20 19 22
41 42 42 44 44 46 47 45 44 42 35 31 32 30 28 29 28 23 29 27 27 26 20 17 17 19 17 17 15 16 13 12 11 15 10 7 18 18 12 15 20 20 21 24
46 46 43 43 43 45 48 44 42 42 34 34 36 35 34 33 31 28 30 25 26 26 20 21 23 20 20 15 8 17 15 16 15 14 13 18 21 18 20 22 21 21 22 24
49 49 45 43 43 45 47 44 42 41 37 36 35 33 34 35 34 35 29 31 30 27 30 26 25 18 20 14 15 16 17 21 20 17 16 20 22 24 22 22 22 24 24 23
49 49 45 43 44 46 47 43 42 40 37 33 33 35 33 35 35 35 35 33 33 33 32 28 25 20 24 19 19 17 19 21 19 18 18 19 20 22 23 24 24 25 26 25
45 45 44 43 45 46 48 45 43 42 40 35 32 34 34 34 34 34 34 33 33 31 29 28 25 27 24 27 26 23 22 19 17 16 19 19 19 22 24 24 24 25 26 27
44 44 44 45 45 48 45 40 44 44 44 36 33 34 33 34 34 34 34 34 33 32 29 28 29 33 28 24 21 24 26 26 23 21 23 24 25 25 28 26 26 26 26 28
46 46 46 47 49 46 40 39 43 45 45 38 31 31 32 33 33 33 34 34 33 32 31 30 30 32 31 27 21 26 28 28 28 29 28 26 26 26 28 29 29 30 28 29
47 47 47 47 48 46 40 44 46 45 42 40 33 29 31 33 31 31 33 32 32 32 31 31 30 31 30 26 28 26 25 27 28 28 28 28 29 29 29 29 29 28 27 27
45 46 47 44 43 41 40 46 45 44 41 35 34 30 29 32 31 32 32 32 30 31 30 30 30 29 27 28 25 24 23 25 27 27 28 28 29 28 28 28 28 27 27 26
41 40 37 33 41 46 46 41 39 38 38 37 34 32 29 31 30 30 30 30 29 29 29 31 30 29 29 26 25 24 24 26 26 27 27 28 27 28 29 28 28 28 27 26
34 32 32 39 42 38 36 32 32 32 32 34 34 31 29 31 29 29 30 29 28 26 28 28 28 26 26 26 24 24 25 25 26 28 29 29 29 29 29 29 29 29 28 27
34 36 37 37 34 32 29 29 30 31 29 32 31 31 30 30 32 29 31 29 28 25 29 28 24 25 25 24 24 24 24 23 25 26 26 28 26 26 28 28 28 27 27 25
36 33 30 30 28 25 24 22 25 26 31 31 31 30 31 32 34 31 30 27 26 28 26 24 24 25 25 24 24 24 24 23 23 22 24 26 23 22 23 23 23 22 21 20
27 25 21 22 21 22 22 23 25 28 31 32 32 30 31 32 30 30 27 26 26 22 19 20 25 26 25 24 24 24 24 22 22 22 20 23 22 20 20 20 20 19 18 18
24 24 18 21 24 25 26 27 26 28 32 32 31 30 31 29 28 29 25 22 21 21 20 26 26 26 25 24 23 23 23 23 21 22 20 20 19 19 18 18 19 18 17 17
22 22 22 25 22 22 21 23 24 28 30 31 31 29 27 25 26 24 23 22 19 22 26 27 25 25 25 24 24 23 23 22 21 21 21 19 19 18 17 17 17 17 17 16
16 20 24 26 23 20 21 23 22 27 27 23 25 22 20 25 23 21 23 20 24 26 26 26 25 25 24 24 23 22 21 21 21 20 20 19 18 17 17 16 16 16 15 14

GFSNW_sfc_30mbdewp_183.txt.gz
Dewpoint
49 49 53 51 48 49 47 42 33 45 45 35 33 31 30 30 27 29 28 28 25 22 22 20 18 19 21 24 26 25 27 24 21 20 31 32 32 31 30 29 24 23 24 19
46 48 49 52 49 49 42 37 35 45 43 32 31 30 31 30 27 27 27 27 28 27 24 20 19 20 25 26 26 23 24 21 18 19 28 29 29 28 30 33 25 23 19 20
43 45 49 51 50 50 44 36 31 39 41 38 34 28 28 26 30 28 27 26 26 25 22 22 20 20 23 27 27 29 25 20 19 15 15 18 21 29 30 29 28 25 23 21
43 44 46 48 51 51 44 35 25 32 34 35 35 31 27 24 23 28 27 24 24 22 18 17 16 19 20 23 26 26 26 19 19 19 19 17 17 17 26 29 28 21 18 18
44 42 44 46 49 50 44 33 28 32 30 31 32 32 28 27 26 23 24 23 20 22 20 17 13 17 18 19 23 21 22 17 16 16 12 15 16 16 17 22 27 27 26 24
43 43 43 44 45 50 44 42 38 36 27 26 27 27 29 26 25 23 21 23 21 22 22 23 23 23 23 23 23 23 21 18 15 13 14 16 12 11 12 17 18 18 14 17
42 43 43 43 44 46 47 43 39 33 26 23 24 24 25 26 25 20 25 25 22 26 29 28 27 26 26 25 25 26 22 20 19 19 18 11 15 13 17 17 16 15 14 18
41 42 42 43 43 45 46 47 40 37 32 23 20 25 26 25 25 26 24 27 28 29 27 23 19 20 21 22 24 25 25 22 19 18 11 8 14 11 15 13 12 14 15 18
42 42 43 43 44 43 43 43 46 40 36 33 22 24 25 26 26 25 28 31 31 29 25 20 12 7 12 13 20 25 25 24 21 15 10 4 14 15 15 16 10 16 17 19
41 42 42 43 43 45 44 41 44 43 38 37 27 25 26 25 24 23 29 30 29 29 24 20 13 10 18 13 11 21 22 20 18 16 13 10 15 17 19 11 14 19 18 21
41 42 43 44 43 43 42 40 42 42 39 38 32 31 30 27 26 23 29 28 29 27 23 18 17 15 16 16 14 15 15 14 15 14 13 11 18 19 16 17 20 21 20 23
41 42 43 42 42 43 42 39 41 43 41 39 38 36 33 33 33 29 30 26 27 26 22 22 21 20 19 15 12 16 14 16 15 15 15 21 22 19 21 23 22 22 22 25
41 42 43 46 46 45 42 40 40 42 38 39 38 34 35 35 34 35 29 30 29 28 31 26 26 21 21 15 15 15 17 20 18 18 19 20 21 24 23 22 23 25 24 24
41 42 43 46 46 48 46 41 41 41 36 34 36 36 34 35 35 35 35 33 33 32 33 30 27 22 24 19 20 17 20 20 20 19 19 20 21 22 24 24 25 25 26 25
40 41 46 45 47 49 46 42 42 42 37 33 34 34 34 34 35 34 35 33 33 31 30 30 26 27 23 25 25 22 21 19 18 18 19 20 21 23 25 26 25 25 26 27
41 43 44 46 49 48 42 37 43 43 41 36 31 35 33 34 35 34 34 34 33 33 30 31 30 32 29 24 23 24 25 26 24 22 27 26 27 26 28 27 27 28 26 28
40 45 44 45 45 43 36 34 41 44 43 37 30 30 34 35 35 34 34 35 34 33 32 31 30 32 32 28 23 27 28 28 28 29 28 27 27 27 29 29 29 30 29 28
40 45 44 44 43 42 40 45 45 44 40 41 31 29 30 35 34 33 34 34 34 33 32 32 31 31 31 27 28 27 25 26 28 28 28 27 28 29 29 29 29 28 28 28
40 47 45 44 42 39 41 46 46 44 41 32 31 28 27 33 33 34 33 35 32 32 31 31 31 30 28 29 27 25 24 25 27 27 27 28 28 29 29 29 28 28 28 28
41 39 36 33 39 45 44 42 39 37 39 37 32 33 28 33 32 32 32 32 30 29 30 31 30 29 28 26 25 25 25 26 26 28 29 29 29 29 29 29 29 28 28 27
34 32 32 38 43 38 34 31 31 31 30 34 32 32 30 32 31 30 32 31 30 28 29 29 28 27 28 26 24 25 25 25 26 28 28 29 29 29 29 29 30 29 28 27
32 34 37 37 33 32 30 29 31 31 29 32 32 32 32 31 33 31 32 29 30 26 30 29 26 26 25 24 24 25 24 24 25 26 26 28 26 25 27 28 29 29 29 26
34 32 30 30 29 25 26 23 26 27 30 31 32 30 31 33 34 31 30 27 27 29 27 26 26 25 24 24 25 25 24 23 23 23 26 25 23 23 23 23 23 23 23 22
28 26 21 22 20 21 22 24 26 28 32 32 32 31 31 32 31 31 27 27 27 25 23 22 25 24 24 24 24 24 23 23 23 22 22 23 22 21 21 20 20 20 19 19
26 25 19 20 23 24 26 28 27 28 32 33 31 31 31 30 28 28 25 23 22 23 22 25 26 25 24 23 22 23 23 23 23 23 22 21 21 20 19 19 19 19 18 18
26 23 22 25 23 22 24 25 25 28 30 32 32 30 28 26 27 25 24 22 21 23 27 26 25 24 24 24 23 22 22 22 21 21 21 21 20 19 18 18 18 17 17 17
22 21 24 24 22 20 21 22 25 30 29 25 26 23 22 27 24 21 23 22 24 26 26 26 25 24 23 23 23 22 22 21 21 21 21 21 19 19 19 18 18 17 16 15

GFSNW_sfc_30mbdewp_189.txt.gz
Dewpoint
45 44 44 46 50 51 48 43 29 45 46 34 36 32 32 31 28 27 26 27 26 24 22 22 22 20 21 25 27 25 27 27 24 20 27 32 31 31 31 27 24 27 27 23
45 45 45 46 48 50 47 39 37 45 44 30 33 34 33 32 30 28 28 27 28 27 25 20 21 21 26 26 25 24 25 23 18 12 26 29 28 29 30 31 32 26 24 21
44 45 45 45 47 50 48 41 31 41 41 40 36 34 32 29 32 29 29 27 27 25 25 25 23 21 24 26 26 29 26 22 18 10 10 19 18 23 27 27 27 24 27 26
41 43 46 44 44 46 48 42 35 35 33 34 35 34 33 30 30 30 28 26 26 24 22 20 20 23 21 26 29 27 25 22 23 22 22 21 20 19 19 21 27 25 23 27
39 41 44 45 44 44 42 39 37 37 33 31 33 34 34 32 32 33 28 25 25 25 24 21 18 20 21 18 25 24 27 21 21 18 18 18 17 17 16 18 21 28 28 27
37 39 42 44 44 42 40 43 44 40 36 32 28 26 25 29 32 31 30 29 25 24 24 25 25 26 25 23 22 23 22 21 20 17 19 20 14 12 12 14 17 20 20 21
38 39 43 43 44 43 40 40 39 36 32 33 32 32 31 30 29 26 27 26 23 24 28 27 25 26 25 25 24 24 23 23 22 19 19 6 14 12 15 17 17 16 17 21
39 40 43 42 43 43 42 41 38 34 30 32 34 31 32 32 32 28 25 24 26 28 26 22 19 18 22 23 24 24 25 24 21 18 18 16 14 12 14 13 14 15 19 21
41 42 43 42 42 42 42 41 42 36 29 25 30 30 35 34 30 30 29 29 30 28 25 23 17 11 14 16 22 25 25 25 23 20 15 8 14 15 15 16 14 17 20 22
42 42 40 40 40 40 41 39 40 38 30 30 28 25 32 37 34 31 30 30 29 29 25 22 20 15 14 11 16 21 23 23 22 21 18 19 15 16 19 13 15 19 21 23
40 38 38 38 39 39 40 38 40 38 34 33 32 30 28 23 26 32 30 28 29 28 25 23 20 18 16 15 17 20 18 19 19 19 18 11 18 19 15 18 21 21 21 23
36 36 36 36 36 38 40 38 39 40 37 33 36 34 32 30 34 37 37 34 33 29 25 26 24 20 20 16 11 18 15 19 17 17 15 21 21 20 22 24 23 23 24 24
34 34 34 34 35 35 37 38 39 38 36 36 36 33 33 35 37 35 30 35 33 29 30 28 25 22 23 15 15 15 16 20 16 17 20 20 22 22 23 24 24 24 25 27
32 32 33 33 34 34 37 37 38 38 37 31 30 35 33 33 32 32 38 36 35 34 32 27 26 23 24 21 20 17 18 19 17 18 19 21 22 24 24 24 24 25 25 25
32 33 33 34 34 35 37 39 40 40 35 30 32 33 33 33 33 30 34 37 35 34 33 31 29 29 25 23 25 21 21 18 18 18 20 20 22 25 27 26 26 27 27 25
33 34 34 34 35 36 37 34 38 40 40 33 27 34 33 31 32 31 29 29 32 35 34 32 31 32 25 22 19 21 23 24 24 21 26 25 26 28 29 28 29 29 27 28
33 35 37 37 36 37 35 33 38 42 41 34 29 30 35 35 34 34 33 34 32 31 33 33 31 29 30 27 23 25 26 27 28 28 28 27 28 27 29 29 29 30 28 29
33 37 37 36 37 38 37 40 42 43 39 37 29 28 31 35 33 32 35 34 35 35 34 32 30 31 31 26 27 27 27 28 28 27 28 28 28 28 29 29 29 28 28 29
36 36 36 37 37 37 37 44 44 44 39 30 30 25 23 35 33 34 34 34 30 34 32 31 30 28 26 26 28 27 26 27 28 27 27 28 28 29 28 28 28 28 28 28
34 35 32 32 38 45 42 37 33 32 32 33 29 29 27 32 31 30 31 33 30 27 31 34 31 30 29 26 26 26 26 27 27 27 27 28 28 28 29 28 28 28 28 28
32 30 29 32 37 39 35 31 29 30 28 32 32 30 27 33 29 29 32 30 30 26 28 29 28 28 28 25 25 25 26 26 27 29 29 29 29 29 29 29 29 28 27 27
31 30 34 31 30 32 29 26 28 29 26 32 29 31 31 31 34 31 30 29 29 26 31 29 26 27 25 25 26 25 24 26 27 28 28 26 26 28 29 29 29 28 26 25
34 28 27 28 28 24 23 23 26 26 30 31 31 29 31 30 32 31 30 26 26 30 27 25 24 25 26 25 24 24 24 24 26 26 24 23 23 25 25 25 26 25 24 24
28 26 20 20 18 20 21 20 22 27 28 31 32 30 30 32 29 31 26 27 28 25 23 20 23 25 26 26 24 23 23 23 24 23 23 22 21 21 20 21 21 21 21 22
25 25 18 19 24 24 24 25 26 27 28 30 31 31 31 30 28 28 26 24 22 22 20 22 24 25 26 24 24 23 22 22 21 21 20 20 19 19 18 19 19 19 18 19
26 22 19 20 20 20 22 22 23 28 28 31 32 29 26 25 26 24 20 21 18 21 22 24 25 25 23 22 22 21 21 21 21 20 19 19 19 18 18 17 17 17 17 16
21 20 24 23 22 20 21 23 23 27 28 24 25 21 21 23 18 17 22 19 21 23 24 24 23 22 22 21 21 21 21 20 20 20 19 19 20 19 17 15 16 16 15 16

GFSNW_sfc_30mbdewp_192.txt.gz
Dewpoint
45 45 45 45 47 51 48 43 34 45 46 33 35 31 31 32 30 28 27 27 25 23 22 22 21 20 20 25 28 24 26 26 24 21 25 32 32 30 31 24 20 26 24 22
44 45 45 45 47 49 47 41 38 45 44 27 31 34 34 34 31 30 28 26 27 27 25 21 22 22 24 26 25 22 25 22 18 10 22 28 29 30 31 30 30 24 22 21
41 42 44 45 44 47 47 39 31 40 42 40 35 33 30 28 31 32 29 28 28 26 25 26 24 22 23 26 26 28 26 23 18 10 10 15 16 19 23 25 22 21 22 24
40 40 43 45 44 45 46 40 33 34 33 35 36 34 33 30 27 31 29 27 27 25 23 22 21 23 22 23 28 28 26 20 22 22 21 21 21 21 21 20 22 22 20 25
37 39 41 42 45 43 40 38 34 37 35 31 34 34 33 32 32 31 30 27 27 26 25 23 22 23 23 22 26 25 27 20 22 20 19 19 19 20 20 18 19 23 25 26
38 39 40 42 44 42 37 40 41 39 36 34 31 29 30 29 31 31 32 30 27 26 26 26 25 26 25 24 22 23 22 24 21 15 20 20 13 11 11 14 16 20 18 20
37 40 40 41 43 43 38 38 38 33 28 31 30 31 31 30 30 30 30 30 27 26 27 27 26 25 25 25 25 24 22 22 22 18 19 6 12 13 12 16 17 18 17 21
38 39 40 41 43 43 41 40 36 32 27 29 30 30 33 33 34 33 32 32 30 27 26 24 22 17 19 22 25 24 24 23 20 18 18 16 15 13 12 12 13 15 19 22
40 41 42 43 43 43 43 41 41 36 30 24 25 23 25 25 28 28 30 33 31 28 25 24 21 17 12 12 22 25 25 25 21 21 16 8 11 15 15 16 13 17 21 23
41 43 43 42 41 41 41 39 40 37 32 30 28 26 25 29 30 28 32 33 29 29 25 24 23 22 20 14 15 21 23 24 22 22 21 18 20 16 18 11 12 19 22 24
41 41 40 39 39 39 40 38 40 35 32 30 31 31 29 26 24 26 33 31 29 28 25 24 23 21 18 15 16 20 18 20 21 22 19 13 18 18 15 17 21 20 22 24
36 36 36 36 36 36 37 36 38 39 35 30 33 34 33 31 29 30 31 28 34 32 26 26 24 21 20 17 12 22 16 17 18 19 17 20 20 19 22 24 22 22 22 24
33 34 34 34 34 34 35 35 36 37 34 32 32 31 34 36 34 33 28 28 33 36 33 30 27 23 23 18 16 16 18 21 19 17 18 20 20 21 22 23 23 24 25 25
32 33 33 33 34 34 34 34 35 35 32 27 25 30 33 34 36 33 32 30 30 34 34 34 32 26 25 21 21 18 17 19 17 18 19 21 21 22 23 24 24 24 25 27
32 32 33 33 32 34 35 36 36 37 32 24 27 30 33 35 35 34 34 33 31 29 29 30 30 32 28 26 24 23 21 19 17 15 20 19 20 24 26 24 25 26 25 25
31 31 31 32 33 34 35 28 33 36 36 29 23 30 30 32 34 34 32 32 32 33 31 30 32 33 28 25 23 23 24 22 21 20 24 25 25 27 28 26 27 28 28 27
30 30 30 33 34 36 32 26 32 37 36 32 27 27 34 31 31 32 33 32 30 30 30 29 28 29 33 29 26 26 26 25 26 28 27 26 27 26 29 29 29 30 28 29
30 30 32 36 37 36 33 35 36 34 31 32 27 26 29 33 31 30 31 30 30 31 30 27 28 33 31 27 30 29 27 27 27 27 28 28 28 28 29 29 29 28 28 28
30 34 35 34 34 32 31 36 35 36 34 29 29 23 20 35 33 33 33 32 29 33 28 26 26 25 25 27 28 27 27 27 27 28 27 27 28 28 28 29 29 28 28 29
32 32 30 28 36 37 37 39 34 33 33 32 28 28 26 33 32 30 31 32 29 25 29 31 29 23 24 28 29 28 27 28 28 27 27 28 28 28 28 28 28 28 28 29
29 27 27 33 34 31 35 31 28 30 27 30 31 30 27 34 28 29 32 29 30 25 24 28 26 27 26 27 27 26 27 28 28 28 29 29 28 29 29 29 29 28 28 28
29 29 32 32 28 28 28 25 27 27 25 30 30 29 30 32 35 30 30 28 29 23 31 27 22 20 28 25 25 25 26 27 28 28 28 28 29 29 30 29 28 27 26 26
33 29 26 25 26 22 23 20 24 25 29 31 31 29 31 31 33 31 29 26 25 31 27 25 23 25 25 25 24 24 27 27 28 26 24 24 26 27 28 27 26 25 24 24
28 25 21 20 18 19 20 20 21 24 27 28 31 30 30 31 29 30 26 28 28 24 23 20 22 25 25 24 25 26 26 26 24 23 23 22 22 21 22 22 22 23 23 23
25 24 18 19 21 23 23 24 24 27 29 27 29 30 31 29 28 29 27 23 21 20 18 20 23 25 26 26 25 26 26 25 23 21 20 20 19 19 19 19 20 20 20 20
25 22 18 19 19 18 21 21 21 27 26 28 30 29 27 25 26 22 19 20 16 18 20 23 24 24 25 25 25 25 24 22 20 20 20 19 18 18 17 17 17 17 18 18
21 20 24 22 21 19 20 22 23 26 23 24 25 22 20 23 18 18 20 17 19 21 22 24 24 23 24 24 23 21 20 19 19 20 20 19 19 18 16 14 16 16 16 17